This demonstration page uses our WeatherBlox Daily Observations layout. Learn more.

Left ArrowRight Arrow

38.20091, -84.87328

Hourly Observations for July 3, 2019

Temp ( °F °C ) Dew Point ( °F °C ) Humidity (%) Winds ( mph kmh ) Pressure ( in mb ) Visibility ( mi km ) Precip ( " mm )
12:53 am 00:53 Clear with Light Rain 73 22.8 69 20.6 87 87 ESE 3 6 29.95 1014 10 16 0.00 0.03
1:53 am 01:53 Mostly Clear 72 22.2 69 20.6 91 91 Calm 29.94 1014 10 16 0.00 0.03
2:53 am 02:53 Clear 71 21.7 69 20.6 94 94 Calm 29.93 1013 10 16 0.00 0.00
3:53 am 03:53 Clear 70 21.1 68 20 93 93 Calm 29.92 1013 10 16 0.00 0.00
4:53 am 04:53 Clear 69 20.6 67 19.4 93 93 Calm 29.92 1013 9 14 0.00 0.00
5:53 am 05:53 Clear 69 20.6 67 19.4 93 93 Calm 29.92 1013 10 16 0.00 0.00
6:53 am 06:53 Sunny 70 21.1 67 19.4 90 90 Calm 29.94 1014 10 16 0.00 0.00
7:53 am 07:53 Sunny 72 22.2 68 20 87 87 Calm 29.95 1014 10 16 0.00 0.00
8:53 am 08:53 Sunny 76 24.4 70 21.1 82 82 SW 7 11 29.95 1014 10 16 0.00 0.00
9:53 am 09:53 Sunny 79 26.1 72 22.2 79 79 SW 7 11 29.96 1014 10 16 0.00 0.00
10:53 am 10:53 Sunny 83 28.3 74 23.3 74 74 S 8 13 29.95 1014 10 16 0.00 0.00
11:53 am 11:53 Mostly Sunny 86 30 73 22.8 65 65 SSW 8 13 29.95 1014 10 16 0.00 0.00
12:53 pm 12:53 Mostly Sunny 87 30.6 71 21.7 59 59 SW 9 15 29.95 1014 10 16 0.00 0.00
1:53 pm 13:53 Sunny 89 31.7 72 22.2 57 57 SSW 13 20 29.92 1013 10 16 0.00 0.00
2:53 pm 14:53 Mostly Cloudy 87 30.6 72 22.2 61 61 SSW 6 9 29.91 1013 10 16 0.00 0.00
3:53 pm 15:53 Partly Cloudy with Nearby Thunderstorms 88 31.1 70 21.1 55 55 SW 8 13 29.89 1012 10 16 0.00 0.00
4:01 pm 16:01 Partly Cloudy with Thunderstorms 87 30.6 71 21.7 59 59 NW 9 15 29.87 1012 10 16 0.00 0.00
4:53 pm 16:53 Cloudy with Thunderstorms 78 25.6 71 21.7 79 79 NW 6 9 29.91 1013 7 11 0.01 0.25
5:31 pm 17:31 Cloudy with Nearby Thunderstorms 77 25 73 22.8 88 88 E 9 15 29.91 1013 7 11 0.04 1.02
5:53 pm 17:53 Mostly Cloudy with Nearby Thunderstorms 73 22.8 70 21.1 90 90 SE 9 15 29.93 1014 10 16 0.04 1.02
6:00 pm 18:00 Partly Cloudy 73 22.8 70 21.1 90 90 SSE 9 15 29.94 1014 10 16 0.00 0.00
6:16 pm 18:16 Mostly Cloudy with Nearby Thunderstorms 74 23.3 71 21.7 91 91 S 8 13 29.93 1014 10 16 0.00 0.00
6:42 pm 18:42 Cloudy with Thunderstorms 74 23.3 71 21.7 91 91 SSE 5 7 29.92 1013 7 11 0.03 0.76
6:53 pm 18:53 Cloudy 74 23.3 71 21.7 91 91 Calm 29.92 1013 10 16 0.03 0.76
7:53 pm 19:53 Mostly Cloudy 74 23.3 71 21.7 91 91 Calm 29.92 1013 10 16 0.02 0.51
8:21 pm 20:21 Partly Cloudy 74 23.3 71 21.7 91 91 SW 5 7 29.93 1014 10 16 0.00 0.00
8:30 pm 20:30 Mostly Cloudy 74 23.3 71 21.7 91 91 SW 6 9 29.92 1013 10 16 0.00 0.00
8:43 pm 20:43 Partly Cloudy 74 23.3 71 21.7 91 91 Calm 29.93 1014 10 16 0.00 0.00
8:53 pm 20:53 Mostly Sunny 74 23.3 71 21.7 91 91 SW 3 6 29.93 1014 10 16 0.00 0.00
9:53 pm 21:53 Clear 73 22.8 71 21.7 94 94 SSW 3 6 29.95 1014 10 16 0.00 0.00
10:42 pm 22:42 Mostly Clear 73 22.8 70 21.1 90 90 SSW 6 9 29.97 1015 10 16 0.00 0.00
10:53 pm 22:53 Clear with Mist and Fog 73 22.8 70 21.1 90 90 WSW 3 6 29.98 1015 5 8 0.00 0.00
11:01 pm 23:01 Partly Cloudy with Mist and Fog 73 22.8 70 21.1 90 90 WSW 6 9 29.98 1015 6 10 0.00 0.00
11:12 pm 23:12 Mostly Cloudy 73 22.8 71 21.7 94 94 SW 6 9 29.98 1015 8 13 0.00 0.00
11:41 pm 23:41 Partly Cloudy 72 22.2 71 21.7 97 97 S 3 6 29.96 1015 7 11 0.00 0.00
11:53 pm 23:53 Clear 72 22.2 70 21.1 94 94 S 5 7 29.96 1015 10 16 0.00 0.00

Powered by AerisWeather